Location: Rumah Apan
(2.7833°N, 113.9500°E)
Time: 00:42:38
(UTC+00:00)

Cosmos 1464 Rocket - Pass Details

Date: 25 July 2021
Orbit: 951 x 1002 km, 82.9° (Epoch: 22 September)

Event Time Altitude Azimuth Distance (km) Brightness Sun altitude
Rises 11:21:26 0° 8° (N) 3,658 7.2 -11.0°
Reaches altitude 10° 11:24:03 10° 14° (NNE) 2,705 6.4 -11.6°
Maximum altitude 11:29:58 47° 87° (E) 1,249 4.2 -13.0°
Drops below altitude 10° 11:35:48 10° 159° (SSE) 2,684 5.9 -14.3°
Enters shadow 11:37:34 - 163° (SSE) 3,323 6.4 -14.7°
